JAS-2 (FO-29)

Last updated on Tue Aug 25 2026 00:03:13 GMT+0000 (Coordinated Universal Time)

1 24278U 96046B 26234.99810505 -.00000005 00000+0 34201-4 0 9991 2 24278 98.5190 74.7120 0348805 283.1085 73.1351 13.53276958482208
UTC large
Height (km)
Speed (km/s)
/
Latitude / Longitude
Inclination (degrees)
Orbital Period (minutes)
Azimuth
Elevation
Range (km)
Doppler Factor

Next 0 passes for location: London (51.5072 / 0.1276)

No passes found over London.
JAS-2 (FO-29)